When you browse on this site, cookies collect data to enhance your experience and personalize the content and advertising you see.
Visit our Privacy Policy to learn more. By continuing to use the site, you agree to this use of cookies and data.
  • In Belgium
  • List of Countries
  • For 7 days
  • Water Temperature
  • Satellite Maps
  • Weather Map
  • Weather Widgets
  • user-avatar
    Login

    Hourly Weather Thai Binh

    Today, 22 January, Tuesday

    Time Temperature Precipitation Wind Pressure Humidity
    00:00 +14°C° 0 mm 3 mps 768 mmHg 65%
    01:00 +14°C° 0 mm 3 mps 768 mmHg 66%
    02:00 +14°C° 0 mm 3 mps 768 mmHg 64%
    03:00 +14°C° 0 mm 3 mps 768 mmHg 61%
    04:00 +14°C° 0 mm 3 mps 767 mmHg 59%
    05:00 +14°C° 0 mm 3 mps 768 mmHg 58%
    06:00 +14°C° 0 mm 3 mps 768 mmHg 57%
    07:00 +13°C° 0 mm 3 mps 768 mmHg 54%
    08:00 +14°C° 0 mm 3 mps 768 mmHg 52%
    09:00 +16°C° 0 mm 3 mps 769 mmHg 50%
    10:00 +17°C° 0 mm 3 mps 769 mmHg 48%
    11:00 +17°C° 0 mm 3 mps 768 mmHg 47%
    12:00 +18°C° 0 mm 2 mps 768 mmHg 45%
    13:00 +18°C° 0 mm 2 mps 767 mmHg 44%
    14:00 +19°C° 0 mm 2 mps 766 mmHg 44%
    15:00 +21°C° 0 mm 1 mps 766 mmHg 44%
    16:00 +22°C° 0 mm 1 mps 765 mmHg 45%
    17:00 +21°C° 0 mm 1 mps 765 mmHg 49%
    18:00 +20°C° 0 mm 1 mps 765 mmHg 53%
    19:00 +19°C° 0 mm 2 mps 765 mmHg 57%
    20:00 +19°C° 0 mm 1 mps 765 mmHg 60%
    21:00 +19°C° 0 mm 1 mps 765 mmHg 62%
    22:00 +19°C° 0 mm 1 mps 765 mmHg 65%
    23:00 +18°C° 0 mm 1 mps 765 mmHg 66%

    Tomorrow, 23 January, Wednesday

    Time Temperature Precipitation Wind Pressure Humidity
    00:00 +18°C° 0 mm 1 mps 765 mmHg 67%
    01:00 +16°C° 0 mm 0 mps 765 mmHg 68%
    02:00 +16°C° 0 mm 0 mps 765 mmHg 69%
    03:00 +16°C° 0 mm 0 mps 765 mmHg 70%
    04:00 +16°C° 0 mm 1 mps 764 mmHg 72%
    05:00 +16°C° 0 mm 1 mps 765 mmHg 72%
    06:00 +16°C° 0 mm 1 mps 765 mmHg 73%
    07:00 +16°C° 0 mm 1 mps 765 mmHg 73%
    08:00 +19°C° 0 mm 1 mps 765 mmHg 67%
    09:00 +20°C° 0 mm 1 mps 766 mmHg 60%
    10:00 +21°C° 0 mm 2 mps 766 mmHg 54%
    11:00 +23°C° 0 mm 2 mps 765 mmHg 53%
    12:00 +22°C° 0 mm 3 mps 765 mmHg 51%
    13:00 +24°C° 0 mm 3 mps 764 mmHg 50%
    14:00 +24°C° 0 mm 3 mps 763 mmHg 52%
    15:00 +23°C° 0 mm 4 mps 763 mmHg 54%
    16:00 +23°C° 0 mm 4 mps 762 mmHg 57%
    17:00 +22°C° 0 mm 4 mps 763 mmHg 61%
    18:00 +21°C° 0 mm 4 mps 763 mmHg 66%
    19:00 +21°C° 0 mm 3 mps 763 mmHg 71%
    20:00 +20°C° 0 mm 3 mps 763 mmHg 73%
    21:00 +20°C° 0 mm 2 mps 764 mmHg 75%
    22:00 +20°C° 0 mm 2 mps 764 mmHg 77%
    23:00 +21°C° 0 mm 1 mps 764 mmHg 78%

    Day after tomorrow, 24 January, Thursday

    Time Temperature Precipitation Wind Pressure Humidity
    00:00 +21°C° 0 mm 1 mps 764 mmHg 79%
    01:00 +20°C° 0 mm 1 mps 763 mmHg 80%
    02:00 +20°C° 0 mm 1 mps 763 mmHg 80%
    03:00 +20°C° 0 mm 1 mps 763 mmHg 81%
    04:00 +20°C° 0 mm 1 mps 763 mmHg 82%
    05:00 +20°C° 0 mm 1 mps 763 mmHg 83%
    06:00 +20°C° 0 mm 1 mps 763 mmHg 83%
    07:00 +20°C° 0 mm 1 mps 764 mmHg 84%
    08:00 +21°C° 0 mm 1 mps 764 mmHg 79%
    09:00 +23°C° 0 mm 1 mps 765 mmHg 73%
    10:00 +24°C° 0 mm 1 mps 765 mmHg 68%
    11:00 +25°C° 0 mm 1 mps 765 mmHg 65%
    12:00 +25°C° 0 mm 1 mps 764 mmHg 62%
    13:00 +26°C° 0 mm 1 mps 763 mmHg 58%
    14:00 +26°C° 0 mm 2 mps 763 mmHg 60%
    15:00 +25°C° 0 mm 2 mps 762 mmHg 62%
    16:00 +25°C° 0 mm 3 mps 762 mmHg 65%
    17:00 +24°C° 0 mm 3 mps 762 mmHg 69%
    18:00 +24°C° 0 mm 3 mps 762 mmHg 73%
    19:00 +22°C° 0 mm 3 mps 763 mmHg 78%
    20:00 +22°C° 0.1 mm 3 mps 763 mmHg 79%
    21:00 +22°C° 0.1 mm 3 mps 763 mmHg 81%
    22:00 +22°C° 0.1 mm 3 mps 764 mmHg 82%
    23:00 +22°C° 0.1 mm 3 mps 763 mmHg 83%

    25 January, Friday

    Time Temperature Precipitation Wind Pressure Humidity
    00:00 +22°C° 0.1 mm 3 mps 763 mmHg 83%
    01:00 +22°C° 0.1 mm 3 mps 763 mmHg 84%
    02:00 +22°C° 0.1 mm 3 mps 763 mmHg 83%
    03:00 +21°C° 0.1 mm 3 mps 763 mmHg 83%
    04:00 +21°C° 0.1 mm 3 mps 762 mmHg 83%
    05:00 +21°C° 0.1 mm 3 mps 763 mmHg 83%
    06:00 +21°C° 0.1 mm 2 mps 764 mmHg 83%
    07:00 +21°C° 0.1 mm 2 mps 764 mmHg 83%
    08:00 +21°C° 0.1 mm 2 mps 765 mmHg 81%
    09:00 +22°C° 0.1 mm 3 mps 765 mmHg 79%
    10:00 +22°C° 0.1 mm 3 mps 766 mmHg 78%
    11:00 +22°C° 0 mm 3 mps 766 mmHg 75%
    12:00 +24°C° 0 mm 3 mps 765 mmHg 73%
    13:00 +24°C° 0 mm 3 mps 765 mmHg 70%
    14:00 +24°C° 0.1 mm 3 mps 764 mmHg 72%
    15:00 +24°C° 0.1 mm 3 mps 764 mmHg 74%
    16:00 +22°C° 0.1 mm 4 mps 764 mmHg 76%
    17:00 +22°C° 0 mm 3 mps 765 mmHg 78%
    18:00 +22°C° 0 mm 3 mps 765 mmHg 80%
    19:00 +21°C° 0 mm 3 mps 766 mmHg 82%
    20:00 +21°C° 0.1 mm 3 mps 766 mmHg 82%
    21:00 +21°C° 0.1 mm 3 mps 767 mmHg 82%
    22:00 +21°C° 0.1 mm 3 mps 767 mmHg 82%
    23:00 +21°C° 0 mm 2 mps 767 mmHg 82%

    26 January, Saturday

    Time Temperature Precipitation Wind Pressure Humidity
    00:00 +21°C° 0 mm 2 mps 766 mmHg 82%
    01:00 +21°C° 0 mm 2 mps 766 mmHg 82%
    02:00 +21°C° 0 mm 2 mps 766 mmHg 82%
    03:00 +20°C° 0 mm 2 mps 766 mmHg 83%
    04:00 +20°C° 0 mm 2 mps 766 mmHg 83%
    05:00 +20°C° 0 mm 2 mps 766 mmHg 84%
    06:00 +20°C° 0 mm 2 mps 767 mmHg 84%
    07:00 +20°C° 0 mm 2 mps 767 mmHg 85%
    08:00 +21°C° 0 mm 3 mps 768 mmHg 77%
    09:00 +22°C° 0 mm 3 mps 768 mmHg 69%
    10:00 +25°C° 0 mm 4 mps 769 mmHg 62%
    11:00 +26°C° 0 mm 4 mps 768 mmHg 58%
    12:00 +26°C° 0 mm 4 mps 767 mmHg 54%
    13:00 +27°C° 0 mm 5 mps 767 mmHg 51%
    14:00 +26°C° 0 mm 5 mps 766 mmHg 52%
    15:00 +26°C° 0 mm 5 mps 766 mmHg 54%
    16:00 +25°C° 0 mm 5 mps 765 mmHg 55%
    17:00 +23°C° 0 mm 4 mps 766 mmHg 60%
    18:00 +23°C° 0 mm 4 mps 766 mmHg 65%
    19:00 +22°C° 0 mm 3 mps 767 mmHg 70%
    20:00 +21°C° 0 mm 3 mps 767 mmHg 72%
    21:00 +21°C° 0 mm 2 mps 767 mmHg 75%
    22:00 +21°C° 0 mm 2 mps 768 mmHg 77%
    23:00 +20°C° 0 mm 2 mps 767 mmHg 78%

    27 January, Sunday

    Time Temperature Precipitation Wind Pressure Humidity
    00:00 +21°C° 0 mm 1 mps 767 mmHg 79%
    01:00 +21°C° 0 mm 1 mps 767 mmHg 80%
    02:00 +21°C° 0 mm 1 mps 767 mmHg 82%
    03:00 +21°C° 0 mm 1 mps 766 mmHg 83%
    04:00 +20°C° 0 mm 1 mps 766 mmHg 85%
    05:00 +19°C° 0 mm 2 mps 767 mmHg 85%
    06:00 +19°C° 0 mm 2 mps 767 mmHg 85%
    07:00 +19°C° 0 mm 2 mps 767 mmHg 85%
    08:00 +20°C° 0 mm 3 mps 768 mmHg 76%
    09:00 +22°C° 0 mm 4 mps 768 mmHg 68%
    10:00 +25°C° 0 mm 5 mps 769 mmHg 59%
    11:00 +25°C° 0 mm 5 mps 768 mmHg 57%
    12:00 +25°C° 0 mm 5 mps 767 mmHg 55%
    13:00 +26°C° 0 mm 6 mps 767 mmHg 52%
    14:00 +25°C° 0 mm 5 mps 766 mmHg 54%
    15:00 +25°C° 0 mm 5 mps 766 mmHg 55%
    16:00 +25°C° 0 mm 5 mps 765 mmHg 57%
    17:00 +23°C° 0 mm 5 mps 765 mmHg 62%
    18:00 +22°C° 0 mm 4 mps 766 mmHg 67%
    19:00 +21°C° 0 mm 4 mps 766 mmHg 72%
    20:00 +21°C° 0 mm 3 mps 766 mmHg 74%
    21:00 +21°C° 0 mm 3 mps 766 mmHg 75%
    22:00 +21°C° 0 mm 3 mps 767 mmHg 77%
    23:00 +20°C° 0 mm 3 mps 766 mmHg 79%
    Show more